| time (UTC) | temp F | wind direction | speed MPH | gust MPH | rain 1hr in | rain 24hr in | rain mn in | humidity % | barometer mb |
| 20260905064955 | 78 | 216 | 7.0 | 10.0 | 0.00 | 0.00 | 0.00 | 57 | 1014.6 |
| 20260905064450 | 78 | 225 | 7.0 | 12.0 | 0.00 | 0.00 | 0.00 | 57 | 1014.5 |
| 20260905063945 | 78 | 225 | 10.0 | 12.0 | 0.00 | 0.00 | 0.00 | 56 | 1014.5 |
| 20260905063439 | 78 | 212 | 6.0 | 11.0 | 0.00 | 0.00 | 0.00 | 57 | 1014.1 |
| 20260905062936 | 78 | 225 | 7.0 | 10.0 | 0.00 | 0.00 | 0.00 | 57 | 1014.5 |
| 20260905062435 | 78 | 229 | 6.0 | 8.0 | 0.00 | 0.00 | 0.00 | 56 | 1014.7 |
| 20260905061931 | 78 | 227 | 6.0 | 11.0 | 0.00 | 0.00 | 0.00 | 56 | 1014.6 |
| 20260905061425 | 78 | 229 | 7.0 | 8.0 | 0.00 | 0.00 | 0.00 | 56 | 1014.6 |
| 20260905060924 | 78 | 224 | 8.0 | 11.0 | 0.00 | 0.00 | 0.00 | 56 | 1014.3 |
| 20260905060421 | 78 | 217 | 5.0 | 9.0 | 0.00 | 0.00 | 0.00 | 55 | 1014.0 |
| 20260905055920 | 78 | 217 | 6.0 | 7.0 | 0.00 | 0.00 | 0.00 | 56 | 1014.1 |
| 20260905055415 | 78 | 207 | 5.0 | 9.0 | 0.00 | 0.00 | 0.00 | 56 | 1014.2 |
| 20260905054914 | 78 | 210 | 4.0 | 6.0 | 0.00 | 0.00 | 0.00 | 55 | 1014.2 |
| 20260905054411 | 78 | 242 | 4.0 | 6.0 | 0.00 | 0.00 | 0.00 | 55 | 1014.5 |
| 20260905053910 | 79 | 220 | 5.0 | 6.0 | 0.00 | 0.00 | 0.00 | 55 | 1014.5 |
| 20260905053405 | 79 | 217 | 3.0 | 5.0 | 0.00 | 0.00 | 0.00 | 54 | 1014.1 |
| 20260905052901 | 79 | 178 | 5.0 | 6.0 | 0.00 | 0.00 | 0.00 | 53 | 1014.5 |
| 20260905052400 | 80 | 220 | 6.0 | 7.0 | 0.00 | 0.00 | 0.00 | 53 | 1014.5 |
| 20260905051900 | 80 | 230 | 5.0 | 8.0 | 0.00 | 0.00 | 0.00 | 53 | 1014.3 |
| 20260905051356 | 80 | 236 | 5.0 | 7.0 | 0.00 | 0.00 | 0.00 | 52 | 1014.2 |
| 20260905050853 | 81 | 240 | 4.0 | 9.0 | 0.00 | 0.00 | 0.00 | 51 | 1014.6 |
| 20260905050349 | 81 | 214 | 5.0 | 11.0 | 0.00 | 0.00 | 0.00 | 51 | 1014.3 |
| 20260905045849 | 81 | 220 | 7.0 | 11.0 | 0.00 | 0.00 | 0.00 | 50 | 1014.3 |
| 20260905045344 | 82 | 208 | 2.0 | 11.0 | 0.00 | 0.00 | 0.00 | 49 | 1014.5 |
| 20260905044839 | 82 | 189 | 5.0 | 8.0 | 0.00 | 0.00 | 0.00 | 49 | 1014.6 |
| 20260905044334 | 82 | 186 | 7.0 | 10.0 | 0.00 | 0.00 | 0.00 | 49 | 1014.2 |
| 20260905043833 | 82 | 204 | 5.0 | 12.0 | 0.00 | 0.00 | 0.00 | 48 | 1014.5 |
| 20260905043328 | 82 | 207 | 5.0 | 10.0 | 0.00 | 0.00 | 0.00 | 48 | 1014.5 |
| 20260905042823 | 83 | 195 | 6.0 | 10.0 | 0.00 | 0.00 | 0.00 | 47 | 1014.3 |
| 20260905042323 | 83 | 196 | 6.0 | 13.0 | 0.00 | 0.00 | 0.00 | 47 | 1014.1 |
| 20260905041818 | 83 | 213 | 6.0 | 13.0 | 0.00 | 0.00 | 0.00 | 46 | 1014.2 |
| 20260905041314 | 84 | 217 | 5.0 | 12.0 | 0.00 | 0.00 | 0.00 | 45 | 1014.2 |
| 20260905040809 | 84 | 180 | 7.0 | 14.0 | 0.00 | 0.00 | 0.00 | 45 | 1014.2 |
| 20260905040307 | 84 | 207 | 10.0 | 12.0 | 0.00 | 0.00 | 0.00 | 44 | 1014.2 |
| 20260905035802 | 85 | 190 | 9.0 | 13.0 | 0.00 | 0.00 | 0.00 | 44 | 1014.1 |
| 20260905035258 | 85 | 171 | 7.0 | 11.0 | 0.00 | 0.00 | 0.00 | 43 | 1013.8 |
| 20260905034755 | 85 | 192 | 6.0 | 13.0 | 0.00 | 0.00 | 0.00 | 42 | 1013.9 |
| 20260905034255 | 85 | 210 | 9.0 | 10.0 | 0.00 | 0.00 | 0.00 | 41 | 1014.0 |
| 20260905033753 | 85 | 185 | 9.0 | 13.0 | 0.00 | 0.00 | 0.00 | 41 | 1014.0 |
| 20260905033249 | 85 | 155 | 5.0 | 12.0 | 0.00 | 0.00 | 0.00 | 41 | 1013.9 |
| 20260905032748 | 85 | 159 | 7.0 | 9.0 | 0.00 | 0.00 | 0.00 | 40 | 1013.7 |
| 20260905032244 | 85 | 174 | 5.0 | 13.0 | 0.00 | 0.00 | 0.00 | 40 | 1013.6 |
| 20260905031738 | 86 | 158 | 10.0 | 12.0 | 0.00 | 0.00 | 0.00 | 39 | 1013.5 |
| 20260905031235 | 86 | 154 | 7.0 | 15.0 | 0.00 | 0.00 | 0.00 | 37 | 1013.3 |
| 20260905030730 | 86 | 144 | 5.0 | 13.0 | 0.00 | 0.00 | 0.00 | 37 | 1013.3 |
| 20260905030224 | 86 | 199 | 6.0 | 11.0 | 0.00 | 0.00 | 0.00 | 37 | 1013.2 |
| 20260905025719 | 86 | 167 | 3.0 | 8.0 | 0.00 | 0.00 | 0.00 | 38 | 1013.1 |
| 20260905025215 | 86 | 140 | 6.0 | 9.0 | 0.00 | 0.00 | 0.00 | 37 | 1013.1 |
| 20260905024710 | 87 | 141 | 5.0 | 7.0 | 0.00 | 0.00 | 0.00 | 36 | 1012.9 |
| 20260905024206 | 87 | 139 | 7.0 | 8.0 | 0.00 | 0.00 | 0.00 | 36 | 1012.7 |
| 20260905023700 | 86 | 159 | 2.0 | 7.0 | 0.00 | 0.00 | 0.00 | 36 | 1012.6 |
| 20260905023155 | 86 | 141 | 5.0 | 7.0 | 0.00 | 0.00 | 0.00 | 37 | 1012.7 |
| 20260905022654 | 86 | 176 | 6.0 | 7.0 | 0.00 | 0.00 | 0.00 | 37 | 1012.7 |
| 20260905022150 | 86 | 192 | 3.0 | 5.0 | 0.00 | 0.00 | 0.00 | 38 | 1012.6 |
| 20260905021649 | 86 | 220 | 4.0 | 5.0 | 0.00 | 0.00 | 0.00 | 38 | 1012.3 |
| 20260905021145 | 86 | 198 | 2.0 | 4.0 | 0.00 | 0.00 | 0.00 | 37 | 1012.0 |
| 20260905020640 | 86 | 140 | 2.0 | 6.0 | 0.00 | 0.00 | 0.00 | 37 | 1012.1 |
| 20260905020135 | 86 | 127 | 6.0 | 7.0 | 0.00 | 0.00 | 0.00 | 37 | 1012.2 |
| 20260905015633 | 87 | 134 | 6.0 | 8.0 | 0.00 | 0.00 | 0.00 | 37 | 1012.1 |
| 20260905015133 | 87 | 141 | 5.0 | 9.0 | 0.00 | 0.00 | 0.00 | 37 | 1012.0 |
| 20260905014627 | 87 | 128 | 7.0 | 9.0 | 0.00 | 0.00 | 0.00 | 37 | 1012.2 |
| 20260905014123 | 87 | 136 | 5.0 | 8.0 | 0.00 | 0.00 | 0.00 | 38 | 1011.8 |
| 20260905013619 | 87 | 134 | 7.0 | 10.0 | 0.00 | 0.00 | 0.00 | 38 | 1012.1 |
| 20260905013115 | 87 | 135 | 6.0 | 9.0 | 0.00 | 0.00 | 0.00 | 38 | 1012.0 |
| 20260905012615 | 87 | 130 | 7.0 | 9.0 | 0.00 | 0.00 | 0.00 | 38 | 1011.9 |
| 20260905012112 | 87 | 139 | 7.0 | 9.0 | 0.00 | 0.00 | 0.00 | 38 | 1011.9 |
| 20260905011607 | 87 | 134 | 6.0 | 8.0 | 0.00 | 0.00 | 0.00 | 38 | 1011.7 |
| 20260905011103 | 88 | 128 | 6.0 | 8.0 | 0.00 | 0.00 | 0.00 | 37 | 1011.8 |
| 20260905010602 | 89 | 129 | 7.0 | 9.0 | 0.00 | 0.00 | 0.00 | 37 | 1011.8 |
| 20260905010059 | 89 | 145 | 5.0 | 6.0 | 0.00 | 0.00 | 0.00 | 36 | 1011.8 |
| 20260905005554 | 89 | 142 | 4.0 | 6.0 | 0.00 | 0.00 | 0.00 | 35 | 1011.9 |
| 20260905005050 | 90 | 136 | 6.0 | 7.0 | 0.00 | 0.00 | 0.00 | 35 | 1011.7 |
| 20260905004544 | 90 | 133 | 7.0 | 8.0 | 0.00 | 0.00 | 0.00 | 34 | 1011.6 |
| 20260905004039 | 91 | 129 | 6.0 | 7.0 | 0.00 | 0.00 | 0.00 | 35 | 1011.6 |
| 20260905003535 | 91 | 120 | 6.0 | 8.0 | 0.00 | 0.00 | 0.00 | 34 | 1011.9 |
| 20260905003030 | 91 | 126 | 6.0 | 8.0 | 0.00 | 0.00 | 0.00 | 34 | 1011.6 |
| 20260905002526 | 92 | 132 | 7.0 | 7.0 | 0.00 | 0.00 | 0.00 | 33 | 1011.5 |
| 20260905002020 | 92 | 142 | 7.0 | 7.0 | 0.00 | 0.00 | 0.00 | 33 | 1011.7 |
| 20260905001515 | 92 | 122 | 6.0 | 10.0 | 0.00 | 0.00 | 0.00 | 32 | 1011.6 |
| 20260905001008 | 92 | 126 | 8.0 | 11.0 | 0.00 | 0.00 | 0.00 | 32 | 1011.6 |
| 20260905000504 | 92 | 116 | 7.0 | 11.0 | 0.00 | 0.00 | 0.00 | 32 | 1011.5 |
| 20260905000000 | 93 | 131 | 7.0 | 10.0 | 0.00 | 0.00 | 0.00 | 31 | 1011.6 |
| 20260904235455 | 93 | 138 | 7.0 | 11.0 | 0.00 | 0.00 | 0.00 | 30 | 1011.3 |
| 20260904234950 | 95 | 122 | 11.0 | 15.0 | 0.00 | 0.00 | 0.00 | 28 | 1011.5 |
| 20260904234449 | 95 | 122 | 11.0 | 15.0 | 0.00 | 0.00 | 0.00 | 28 | 1011.2 |
| 20260904233946 | 95 | 134 | 12.0 | 13.0 | 0.00 | 0.00 | 0.00 | 27 | 1011.0 |
| 20260904233441 | 96 | 133 | 14.0 | 15.0 | 0.00 | 0.00 | 0.00 | 25 | 1011.0 |
| 20260904232937 | 97 | 147 | 7.0 | 10.0 | 0.00 | 0.00 | 0.00 | 25 | 1011.0 |
| 20260904232433 | 96 | 177 | 6.0 | 8.0 | 0.00 | 0.00 | 0.00 | 24 | 1010.8 |
| 20260904231929 | 97 | 170 | 3.0 | 6.0 | 0.00 | 0.00 | 0.00 | 24 | 1010.8 |
| 20260904231424 | 97 | 149 | 8.0 | 10.0 | 0.00 | 0.00 | 0.00 | 24 | 1010.9 |
| 20260904230919 | 97 | 138 | 7.0 | 11.0 | 0.00 | 0.00 | 0.00 | 24 | 1010.9 |
| 20260904230418 | 97 | 160 | 4.0 | 8.0 | 0.00 | 0.00 | 0.00 | 24 | 1010.9 |
| 20260904225913 | 97 | 147 | 7.0 | 11.0 | 0.00 | 0.00 | 0.00 | 23 | 1011.0 |
| 20260904225411 | 98 | 204 | 5.0 | 12.0 | 0.00 | 0.00 | 0.00 | 24 | 1011.1 |
| 20260904224911 | 98 | 163 | 6.0 | 9.0 | 0.00 | 0.00 | 0.00 | 23 | 1011.1 |
| 20260904224407 | 98 | 148 | 6.0 | 10.0 | 0.00 | 0.00 | 0.00 | 23 | 1010.9 |
| 20260904223901 | 98 | 147 | 7.0 | 11.0 | 0.00 | 0.00 | 0.00 | 23 | 1011.2 |
| 20260904223400 | 97 | 138 | 7.0 | 14.0 | 0.00 | 0.00 | 0.00 | 24 | 1011.2 |
| 20260904222856 | 97 | 160 | 4.0 | 13.0 | 0.00 | 0.00 | 0.00 | 24 | 1011.0 |
| 20260904222351 | 97 | 168 | 5.0 | 8.0 | 0.00 | 0.00 | 0.00 | 24 | 1011.2 |
| 20260904221851 | 96 | 160 | 6.0 | 10.0 | 0.00 | 0.00 | 0.00 | 24 | 1011.3 |
| 20260904221346 | 95 | 158 | 11.0 | 13.0 | 0.00 | 0.00 | 0.00 | 24 | 1011.5 |
| 20260904220841 | 95 | 173 | 6.0 | 13.0 | 0.00 | 0.00 | 0.00 | 25 | 1011.6 |
| 20260904220340 | 95 | 170 | 5.0 | 9.0 | 0.00 | 0.00 | 0.00 | 25 | 1011.3 |
| 20260904215836 | 95 | 162 | 6.0 | 11.0 | 0.00 | 0.00 | 0.00 | 25 | 1011.3 |
| 20260904215331 | 95 | 186 | 3.0 | 9.0 | 0.00 | 0.00 | 0.00 | 25 | 1011.1 |
| 20260904214827 | 96 | 154 | 12.0 | 13.0 | 0.00 | 0.00 | 0.00 | 25 | 1011.5 |
| 20260904214322 | 96 | 220 | 5.0 | 12.0 | 0.00 | 0.00 | 0.00 | 25 | 1011.5 |
| 20260904213820 | 97 | 189 | 6.0 | 11.0 | 0.00 | 0.00 | 0.00 | 26 | 1011.7 |
| 20260904213316 | 99 | 180 | 11.0 | 20.0 | 0.00 | 0.00 | 0.00 | 25 | 1011.6 |
| 20260904212812 | 99 | 206 | 3.0 | 12.0 | 0.00 | 0.00 | 0.00 | 24 | 1011.8 |
| 20260904212312 | 99 | 189 | 11.0 | 15.0 | 0.00 | 0.00 | 0.00 | 24 | 1011.7 |
| 20260904211807 | 98 | 213 | 9.0 | 16.0 | 0.00 | 0.00 | 0.00 | 23 | 1011.6 |
| 20260904211301 | 98 | 178 | 9.0 | 12.0 | 0.00 | 0.00 | 0.00 | 24 | 1011.3 |
| 20260904210751 | 98 | 220 | 6.0 | 16.0 | 0.00 | 0.00 | 0.00 | 25 | 1011.5 |
| 20260904210250 | 98 | 171 | 9.0 | 15.0 | 0.00 | 0.00 | 0.00 | 26 | 1011.6 |
| 20260904205747 | 97 | 214 | 6.0 | 16.0 | 0.00 | 0.00 | 0.00 | 26 | 1011.6 |
| 20260904205243 | 98 | 211 | 10.0 | 16.0 | 0.00 | 0.00 | 0.00 | 25 | 1011.9 |
| 20260904204739 | 98 | 219 | 11.0 | 16.0 | 0.00 | 0.00 | 0.00 | 25 | 1011.9 |
| 20260904204235 | 97 | 213 | 3.0 | 5.0 | 0.00 | 0.00 | 0.00 | 26 | 1011.7 |
| 20260904203731 | 96 | 256 | 4.0 | 7.0 | 0.00 | 0.00 | 0.00 | 26 | 1011.8 |
| 20260904203227 | 97 | 219 | 8.0 | 16.0 | 0.00 | 0.00 | 0.00 | 26 | 1012.0 |
| 20260904202723 | 98 | 154 | 3.0 | 4.0 | 0.00 | 0.00 | 0.00 | 25 | 1011.9 |
| 20260904202219 | 99 | 213 | 6.0 | 11.0 | 0.00 | 0.00 | 0.00 | 25 | 1012.1 |
| 20260904201714 | 100 | 212 | 6.0 | 12.0 | 0.00 | 0.00 | 0.00 | 25 | 1012.1 |
| 20260904201214 | 99 | 233 | 6.0 | 8.0 | 0.00 | 0.00 | 0.00 | 24 | 1012.2 |
| 20260904200708 | 99 | 218 | 9.0 | 12.0 | 0.00 | 0.00 | 0.00 | 25 | 1012.3 |
| 20260904200203 | 99 | 230 | 3.0 | 13.0 | 0.00 | 0.00 | 0.00 | 25 | 1012.2 |
| 20260904195702 | 99 | 228 | 0.0 | 3.0 | 0.00 | 0.00 | 0.00 | 24 | 1012.3 |
| 20260904195156 | 98 | 274 | 4.0 | 6.0 | 0.00 | 0.00 | 0.00 | 27 | 1012.5 |
| 20260904194650 | 98 | 215 | 2.0 | 5.0 | 0.00 | 0.00 | 0.00 | 26 | 1012.7 |
| 20260904194150 | 97 | 241 | 9.0 | 11.0 | 0.00 | 0.00 | 0.00 | 26 | 1012.6 |
| 20260904193645 | 97 | 215 | 13.0 | 16.0 | 0.00 | 0.00 | 0.00 | 26 | 1012.3 |
| 20260904193142 | 98 | 190 | 12.0 | 13.0 | 0.00 | 0.00 | 0.00 | 26 | 1012.6 |
| 20260904192641 | 97 | 206 | 3.0 | 6.0 | 0.00 | 0.00 | 0.00 | 27 | 1012.6 |
| 20260904192137 | 98 | 228 | 6.0 | 10.0 | 0.00 | 0.00 | 0.00 | 27 | 1012.8 |
| 20260904191634 | 97 | 152 | 5.0 | 8.0 | 0.00 | 0.00 | 0.00 | 27 | 1012.9 |
| 20260904191130 | 98 | 251 | 3.0 | 4.0 | 0.00 | 0.00 | 0.00 | 27 | 1013.0 |
| 20260904190625 | 97 | 206 | 3.0 | 7.0 | 0.00 | 0.00 | 0.00 | 28 | 1013.1 |
| 20260904190121 | 97 | 166 | 4.0 | 7.0 | 0.00 | 0.00 | 0.00 | 29 | 1013.2 |
| 20260904185618 | 97 | 192 | 10.0 | 11.0 | 0.00 | 0.00 | 0.00 | 28 | 1012.9 |
| 20260904185113 | 96 | 257 | 5.0 | 10.0 | 0.00 | 0.00 | 0.00 | 28 | 1013.2 |
| 20260904184611 | 96 | 243 | 8.0 | 8.0 | 0.00 | 0.00 | 0.00 | 30 | 1013.1 |
| 20260904184107 | 96 | 244 | 5.0 | 9.0 | 0.00 | 0.00 | 0.00 | 30 | 1013.2 |
| 20260904183603 | 96 | 199 | 6.0 | 8.0 | 0.00 | 0.00 | 0.00 | 29 | 1013.2 |
| 20260904183057 | 96 | 250 | 4.0 | 6.0 | 0.00 | 0.00 | 0.00 | 29 | 1013.3 |
| 20260904182552 | 96 | 202 | 8.0 | 9.0 | 0.00 | 0.00 | 0.00 | 29 | 1013.6 |
| 20260904182047 | 95 | 247 | 10.0 | 16.0 | 0.00 | 0.00 | 0.00 | 30 | 1013.2 |
| 20260904181543 | 95 | 225 | 4.0 | 7.0 | 0.00 | 0.00 | 0.00 | 31 | 1013.7 |
| 20260904181042 | 96 | 205 | 11.0 | 13.0 | 0.00 | 0.00 | 0.00 | 30 | 1013.5 |
| 20260904180537 | 94 | 259 | 5.0 | 10.0 | 0.00 | 0.00 | 0.00 | 30 | 1013.7 |
| 20260904180032 | 95 | 230 | 3.0 | 7.0 | 0.00 | 0.00 | 0.00 | 32 | 1013.8 |
| 20260904175526 | 95 | 253 | 5.0 | 5.0 | 0.00 | 0.00 | 0.00 | 31 | 1013.7 |
| 20260904175025 | 94 | 214 | 9.0 | 12.0 | 0.00 | 0.00 | 0.00 | 30 | 1013.7 |
| 20260904174520 | 94 | 245 | 8.0 | 13.0 | 0.00 | 0.00 | 0.00 | 32 | 1013.8 |
| 20260904174017 | 94 | 244 | 9.0 | 11.0 | 0.00 | 0.00 | 0.00 | 32 | 1013.9 |
| 20260904173511 | 95 | 223 | 13.0 | 14.0 | 0.00 | 0.00 | 0.00 | 31 | 1014.0 |
| 20260904173007 | 94 | 217 | 3.0 | 8.0 | 0.00 | 0.00 | 0.00 | 31 | 1013.9 |
| 20260904172502 | 94 | 212 | 8.0 | 10.0 | 0.00 | 0.00 | 0.00 | 32 | 1013.9 |
| 20260904172001 | 94 | 176 | 4.0 | 8.0 | 0.00 | 0.00 | 0.00 | 32 | 1014.0 |
| 20260904171457 | 94 | 179 | 5.0 | 11.0 | 0.00 | 0.00 | 0.00 | 31 | 1014.0 |
| 20260904170953 | 93 | 253 | 5.0 | 7.0 | 0.00 | 0.00 | 0.00 | 32 | 1014.1 |
| 20260904170447 | 92 | 239 | 8.0 | 12.0 | 0.00 | 0.00 | 0.00 | 34 | 1014.0 |
| 20260904165943 | 92 | 227 | 7.0 | 8.0 | 0.00 | 0.00 | 0.00 | 34 | 1014.0 |
| 20260904165442 | 93 | 207 | 5.0 | 7.0 | 0.00 | 0.00 | 0.00 | 34 | 1013.9 |
| 20260904164942 | 91 | 222 | 8.0 | 9.0 | 0.00 | 0.00 | 0.00 | 35 | 1013.9 |
| 20260904164436 | 91 | 227 | 9.0 | 10.0 | 0.00 | 0.00 | 0.00 | 35 | 1014.0 |
| 20260904163932 | 91 | 238 | 10.0 | 14.0 | 0.00 | 0.00 | 0.00 | 35 | 1014.1 |
| 20260904163431 | 90 | 249 | 5.0 | 7.0 | 0.00 | 0.00 | 0.00 | 37 | 1014.0 |
| 20260904162926 | 90 | 248 | 8.0 | 11.0 | 0.00 | 0.00 | 0.00 | 36 | 1014.0 |
| 20260904162421 | 90 | 239 | 4.0 | 8.0 | 0.00 | 0.00 | 0.00 | 38 | 1014.0 |
| 20260904161917 | 89 | 261 | 4.0 | 9.0 | 0.00 | 0.00 | 0.00 | 38 | 1014.1 |
| 20260904161412 | 89 | 241 | 7.0 | 13.0 | 0.00 | 0.00 | 0.00 | 38 | 1014.2 |
| 20260904160908 | 89 | 256 | 3.0 | 11.0 | 0.00 | 0.00 | 0.00 | 37 | 1014.0 |
| 20260904160403 | 89 | 239 | 5.0 | 8.0 | 0.00 | 0.00 | 0.00 | 40 | 1013.9 |
| 20260904155857 | 88 | 249 | 7.0 | 12.0 | 0.00 | 0.00 | 0.00 | 40 | 1014.2 |
| 20260904155352 | 87 | 247 | 5.0 | 10.0 | 0.00 | 0.00 | 0.00 | 41 | 1013.9 |
| 20260904154850 | 87 | 249 | 4.0 | 11.0 | 0.00 | 0.00 | 0.00 | 43 | 1014.0 |
| 20260904154345 | 85 | 227 | 8.0 | 9.0 | 0.00 | 0.00 | 0.00 | 44 | 1013.8 |
| 20260904153841 | 85 | 249 | 7.0 | 11.0 | 0.00 | 0.00 | 0.00 | 45 | 1013.7 |
| 20260904153336 | 84 | 238 | 9.0 | 10.0 | 0.00 | 0.00 | 0.00 | 45 | 1014.0 |
| 20260904152832 | 84 | 244 | 7.0 | 11.0 | 0.00 | 0.00 | 0.00 | 45 | 1013.9 |
| 20260904152327 | 84 | 247 | 6.0 | 9.0 | 0.00 | 0.00 | 0.00 | 46 | 1013.6 |
| 20260904151822 | 84 | 232 | 6.0 | 8.0 | 0.00 | 0.00 | 0.00 | 47 | 1013.7 |
| 20260904151321 | 83 | 228 | 6.0 | 9.0 | 0.00 | 0.00 | 0.00 | 47 | 1013.9 |
| 20260904150817 | 83 | 237 | 4.0 | 7.0 | 0.00 | 0.00 | 0.00 | 48 | 1013.9 |
| 20260904150312 | 82 | 230 | 6.0 | 6.0 | 0.00 | 0.00 | 0.00 | 49 | 1013.9 |
| 20260904145810 | 82 | 243 | 3.0 | 6.0 | 0.00 | 0.00 | 0.00 | 50 | 1013.8 |
| 20260904145306 | 82 | 265 | 2.0 | 5.0 | 0.00 | 0.00 | 0.00 | 51 | 1013.8 |
| 20260904144801 | 82 | 241 | 5.0 | 5.0 | 0.00 | 0.00 | 0.00 | 51 | 1013.8 |
| 20260904144257 | 81 | 259 | 2.0 | 5.0 | 0.00 | 0.00 | 0.00 | 52 | 1013.8 |
| 20260904143752 | 80 | 194 | 3.0 | 6.0 | 0.00 | 0.00 | 0.00 | 52 | 1013.9 |
| 20260904143249 | 80 | 183 | 1.0 | 5.0 | 0.00 | 0.00 | 0.00 | 53 | 1013.8 |
| 20260904142745 | 80 | 244 | 2.0 | 5.0 | 0.00 | 0.00 | 0.00 | 55 | 1014.1 |
| 20260904142240 | 79 | 182 | 2.0 | 3.0 | 0.00 | 0.00 | 0.00 | 56 | 1013.9 |
| 20260904141735 | 78 | 198 | 1.0 | 4.0 | 0.00 | 0.00 | 0.00 | 55 | 1013.9 |
| 20260904141231 | 77 | 182 | 3.0 | 4.0 | 0.00 | 0.00 | 0.00 | 57 | 1013.9 |
| 20260904140726 | 77 | 109 | 2.0 | 2.0 | 0.00 | 0.00 | 0.00 | 64 | 1013.8 |
| 20260904140221 | 77 | 60 | 2.0 | 2.0 | 0.00 | 0.00 | 0.00 | 62 | 1013.7 |
| 20260904135720 | 76 | 65 | 1.0 | 2.0 | 0.00 | 0.00 | 0.00 | 62 | 1013.7 |
| 20260904135216 | 76 | 326 | 0.0 | 1.0 | 0.00 | 0.00 | 0.00 | 62 | 1013.9 |
| 20260904134711 | 76 | 251 | 2.0 | 3.0 | 0.00 | 0.00 | 0.00 | 62 | 1013.9 |
| 20260904134211 | 75 | 245 | 2.0 | 4.0 | 0.00 | 0.00 | 0.00 | 63 | 1014.0 |
| 20260904133705 | 74 | 250 | 2.0 | 4.0 | 0.00 | 0.00 | 0.00 | 64 | 1013.7 |
| 20260904133202 | 73 | 230 | 3.0 | 5.0 | 0.00 | 0.00 | 0.00 | 67 | 1013.8 |
| 20260904132701 | 72 | 266 | 3.0 | 4.0 | 0.00 | 0.00 | 0.00 | 71 | 1013.8 |
| 20260904132156 | 70 | 233 | 2.0 | 3.0 | 0.00 | 0.00 | 0.00 | 74 | 1013.9 |
| 20260904131655 | 69 | 85 | 2.0 | 3.0 | 0.00 | 0.00 | 0.00 | 77 | 1013.5 |
| 20260904131151 | 69 | 62 | 2.0 | 3.0 | 0.00 | 0.00 | 0.00 | 76 | 1013.6 |
| 20260904130651 | 70 | 106 | 2.0 | 3.0 | 0.00 | 0.00 | 0.00 | 73 | 1013.3 |
| 20260904130150 | 70 | 147 | 0.0 | 1.0 | 0.00 | 0.00 | 0.00 | 73 | 1013.3 |
| 20260904125647 | 70 | 254 | 0.0 | 3.0 | 0.00 | 0.00 | 0.00 | 72 | 1013.5 |
| 20260904125142 | 70 | 222 | 3.0 | 5.0 | 0.00 | 0.00 | 0.00 | 72 | 1013.5 |
| 20260904124637 | 70 | 230 | 4.0 | 4.0 | 0.00 | 0.00 | 0.00 | 72 | 1013.3 |
| 20260904124133 | 70 | 258 | 2.0 | 3.0 | 0.00 | 0.00 | 0.00 | 72 | 1013.1 |
| 20260904123633 | 70 | 228 | 2.0 | 2.0 | 0.00 | 0.00 | 0.00 | 72 | 1013.0 |
| 20260904123129 | 70 | 251 | 0.0 | 3.0 | 0.00 | 0.00 | 0.00 | 73 | 1013.2 |
| 20260904122623 | 70 | 81 | 2.0 | 3.0 | 0.00 | 0.00 | 0.00 | 73 | 1013.2 |
| 20260904122118 | 71 | 71 | 2.0 | 3.0 | 0.00 | 0.00 | 0.00 | 72 | 1013.0 |
| 20260904121614 | 71 | 81 | 1.0 | 3.0 | 0.00 | 0.00 | 0.00 | 72 | 1013.1 |
| 20260904121109 | 71 | 286 | 1.0 | 2.0 | 0.00 | 0.00 | 0.00 | 72 | 1013.1 |
| 20260904120605 | 71 | 138 | 0.0 | 2.0 | 0.00 | 0.00 | 0.00 | 72 | 1012.8 |
| 20260904115555 | 71 | 262 | 4.0 | 5.0 | 0.00 | 0.00 | 0.00 | 72 | 1012.7 |
| 20260904115050 | 71 | 259 | 4.0 | 5.0 | 0.00 | 0.00 | 0.00 | 71 | 1012.9 |
| 20260904114545 | 72 | 231 | 4.0 | 9.0 | 0.00 | 0.00 | 0.00 | 69 | 1012.9 |
| 20260904114044 | 72 | 236 | 3.0 | 4.0 | 0.00 | 0.00 | 0.00 | 71 | 1012.6 |
| 20260904113539 | 72 | 250 | 3.0 | 6.0 | 0.00 | 0.00 | 0.00 | 71 | 1012.9 |
| 20260904113033 | 72 | 250 | 2.0 | 5.0 | 0.00 | 0.00 | 0.00 | 72 | 1013.0 |
| 20260904112528 | 71 | 235 | 5.0 | 5.0 | 0.00 | 0.00 | 0.00 | 72 | 1012.8 |
| 20260904112024 | 71 | 210 | 3.0 | 6.0 | 0.00 | 0.00 | 0.00 | 73 | 1012.5 |
| 20260904111520 | 71 | 249 | 4.0 | 5.0 | 0.00 | 0.00 | 0.00 | 73 | 1012.7 |
| 20260904111015 | 71 | 255 | 4.0 | 4.0 | 0.00 | 0.00 | 0.00 | 74 | 1012.8 |
| 20260904110514 | 70 | 262 | 3.0 | 5.0 | 0.00 | 0.00 | 0.00 | 75 | 1012.7 |
| 20260904110011 | 70 | 269 | 4.0 | 5.0 | 0.00 | 0.00 | 0.00 | 77 | 1012.7 |
| 20260904105504 | 71 | 269 | 4.0 | 5.0 | 0.00 | 0.00 | 0.00 | 76 | 1012.8 |
| 20260904104959 | 71 | 260 | 3.0 | 5.0 | 0.00 | 0.00 | 0.00 | 76 | 1012.6 |
| 20260904104454 | 71 | 247 | 4.0 | 4.0 | 0.00 | 0.00 | 0.00 | 76 | 1012.5 |
| 20260904103950 | 71 | 322 | 2.0 | 3.0 | 0.00 | 0.00 | 0.00 | 76 | 1012.5 |
| 20260904103446 | 71 | 219 | 1.0 | 3.0 | 0.00 | 0.00 | 0.00 | 77 | 1012.7 |
| 20260904102942 | 70 | 238 | 1.0 | 3.0 | 0.00 | 0.00 | 0.00 | 77 | 1012.5 |
| 20260904102437 | 71 | 200 | 1.0 | 3.0 | 0.00 | 0.00 | 0.00 | 77 | 1012.7 |
| 20260904101927 | 71 | 197 | 0.0 | 3.0 | 0.00 | 0.00 | 0.00 | 77 | 1012.3 |
| 20260904101424 | 71 | 172 | 0.0 | 3.0 | 0.00 | 0.00 | 0.00 | 76 | 1012.2 |
| 20260904100919 | 71 | 201 | 2.0 | 3.0 | 0.00 | 0.00 | 0.00 | 76 | 1012.6 |
| 20260904100415 | 71 | 155 | 2.0 | 5.0 | 0.00 | 0.00 | 0.00 | 75 | 1012.3 |
| 20260904095909 | 71 | 215 | 1.0 | 4.0 | 0.00 | 0.00 | 0.00 | 75 | 1012.2 |
| 20260904095404 | 71 | 136 | 4.0 | 5.0 | 0.00 | 0.00 | 0.00 | 74 | 1012.2 |
| 20260904094859 | 71 | 132 | 4.0 | 6.0 | 0.00 | 0.00 | 0.00 | 73 | 1012.1 |
| 20260904094354 | 71 | 142 | 3.0 | 4.0 | 0.00 | 0.00 | 0.00 | 73 | 1011.9 |
| 20260904093850 | 71 | 132 | 1.0 | 5.0 | 0.00 | 0.00 | 0.00 | 73 | 1012.1 |
| 20260904093350 | 70 | 288 | 0.0 | 3.0 | 0.00 | 0.00 | 0.00 | 75 | 1012.1 |
| 20260904092845 | 69 | 165 | 0.0 | 1.0 | 0.00 | 0.00 | 0.00 | 77 | 1012.1 |
| 20260904092342 | 70 | 280 | 0.0 | 4.0 | 0.00 | 0.00 | 0.00 | 76 | 1012.1 |
| 20260904091838 | 69 | 121 | 2.0 | 3.0 | 0.00 | 0.00 | 0.00 | 77 | 1012.1 |
| 20260904091333 | 69 | 120 | 0.0 | 1.0 | 0.00 | 0.00 | 0.00 | 76 | 1012.2 |
| 20260904090828 | 69 | 129 | 0.0 | 2.0 | 0.00 | 0.00 | 0.00 | 76 | 1012.3 |
| 20260904090324 | 69 | 159 | 0.0 | 1.0 | 0.00 | 0.00 | 0.00 | 78 | 1012.2 |
| 20260904085818 | 68 | 261 | 0.0 | 1.0 | 0.00 | 0.00 | 0.00 | 79 | 1012.1 |
| 20260904085313 | 68 | 269 | 0.0 | 0.0 | 0.00 | 0.00 | 0.00 | 79 | 1012.2 |
| 20260904084808 | 68 | 100 | 0.0 | 2.0 | 0.00 | 0.00 | 0.00 | 78 | 1012.2 |
| 20260904084303 | 68 | 97 | 2.0 | 3.0 | 0.00 | 0.00 | 0.00 | 79 | 1012.2 |
| 20260904083759 | 68 | 131 | 3.0 | 3.0 | 0.00 | 0.00 | 0.00 | 78 | 1012.2 |
| 20260904083256 | 68 | 298 | 1.0 | 2.0 | 0.00 | 0.00 | 0.00 | 78 | 1012.3 |
| 20260904082751 | 68 | 99 | 0.0 | 0.0 | 0.00 | 0.00 | 0.00 | 79 | 1012.5 |
| 20260904082246 | 68 | 269 | 0.0 | 2.0 | 0.00 | 0.00 | 0.00 | 80 | 1012.5 |
| 20260904081741 | 67 | 230 | 0.0 | 3.0 | 0.00 | 0.00 | 0.00 | 80 | 1012.5 |
| 20260904081236 | 67 | 59 | 2.0 | 3.0 | 0.00 | 0.00 | 0.00 | 80 | 1012.5 |
| 20260904080732 | 68 | 34 | 3.0 | 5.0 | 0.00 | 0.00 | 0.00 | 77 | 1012.2 |
| 20260904080222 | 69 | 3 | 1.0 | 4.0 | 0.00 | 0.00 | 0.00 | 75 | 1012.2 |
| 20260904075719 | 71 | 115 | 1.0 | 3.0 | 0.00 | 0.00 | 0.00 | 70 | 1012.5 |
| 20260904075213 | 70 | 133 | 1.0 | 2.0 | 0.00 | 0.00 | 0.00 | 71 | 1012.3 |
| 20260904074712 | 70 | 88 | 1.0 | 2.0 | 0.00 | 0.00 | 0.00 | 71 | 1012.2 |
| 20260904074207 | 70 | 314 | 0.0 | 2.0 | 0.00 | 0.00 | 0.00 | 71 | 1012.2 |
| 20260904073703 | 70 | 240 | 1.0 | 1.0 | 0.00 | 0.00 | 0.00 | 71 | 1012.2 |
| 20260904073158 | 70 | 145 | 0.0 | 2.0 | 0.00 | 0.00 | 0.00 | 71 | 1012.2 |
| 20260904072654 | 70 | 124 | 0.0 | 0.0 | 0.00 | 0.00 | 0.00 | 71 | 1012.0 |
| 20260904072148 | 70 | 23 | 0.0 | 1.0 | 0.00 | 0.00 | 0.00 | 71 | 1012.7 |
| 20260904071644 | 70 | 113 | 0.0 | 2.0 | 0.00 | 0.00 | 0.00 | 70 | 1012.6 |
| 20260904071139 | 70 | 97 | 0.0 | 2.0 | 0.00 | 0.00 | 0.00 | 70 | 1012.3 |
| 20260904070638 | 70 | 152 | 0.0 | 2.0 | 0.00 | 0.00 | 0.00 | 72 | 1012.5 |
| 20260904070133 | 70 | 237 | 0.0 | 3.0 | 0.00 | 0.00 | 0.00 | 71 | 1012.7 |
| 20260904065633 | 71 | 294 | 2.0 | 3.0 | 0.00 | 0.00 | 0.00 | 69 | 1012.6 |
| 20260904065130 | 71 | 164 | 0.0 | 3.0 | 0.00 | 0.00 | 0.00 | 68 | 1012.8 |